When you browse on this site, cookies collect data to enhance your experience and personalize the content and advertising you see.
Visit our Privacy Policy to learn more. By continuing to use the site, you agree to this use of cookies and data.
  • In Hungary
  • List of Countries
  • For 7 days
  • Water Temperature
  • Satellite Maps
  • Weather Map
  • News
  • Weather Widgets
  • user-avatar
    Login

    Hourly Weather Colombo

    Today, 12 December, Wednesday

    Time Temperature Precipitation Wind Pressure Humidity
    00:00 +25°C° 0 mm 4 mps 759 mmHg 82%
    01:00 +25°C° 0 mm 4 mps 758 mmHg 83%
    02:00 +23°C° 0 mm 4 mps 758 mmHg 84%
    03:00 +23°C° 0 mm 4 mps 758 mmHg 84%
    04:00 +23°C° 0 mm 4 mps 758 mmHg 85%
    05:00 +22°C° 0 mm 4 mps 758 mmHg 83%
    06:00 +23°C° 0 mm 4 mps 758 mmHg 78%
    07:00 +26°C° 0 mm 4 mps 759 mmHg 73%
    08:00 +27°C° 0 mm 4 mps 759 mmHg 68%
    09:00 +29°C° 0 mm 4 mps 759 mmHg 60%
    10:00 +30°C° 0 mm 4 mps 759 mmHg 53%
    11:00 +34°C° 0 mm 5 mps 759 mmHg 43%
    12:00 +34°C° 0 mm 5 mps 759 mmHg 43%
    13:00 +34°C° 0 mm 5 mps 758 mmHg 44%
    14:00 +35°C° 0 mm 5 mps 757 mmHg 45%
    15:00 +33°C° 0 mm 5 mps 757 mmHg 53%
    16:00 +32°C° 0 mm 5 mps 757 mmHg 62%
    17:00 +29°C° 0 mm 5 mps 757 mmHg 70%
    18:00 +28°C° 0 mm 5 mps 758 mmHg 76%
    19:00 +28°C° 0 mm 5 mps 758 mmHg 81%
    20:00 +27°C° 0 mm 5 mps 759 mmHg 87%
    21:00 +26°C° 0 mm 4 mps 759 mmHg 86%
    22:00 +26°C° 0 mm 4 mps 759 mmHg 86%
    23:00 +26°C° 0 mm 4 mps 759 mmHg 85%

    Tomorrow, 13 December, Thursday

    Time Temperature Precipitation Wind Pressure Humidity
    00:00 +25°C° 0 mm 4 mps 759 mmHg 84%
    01:00 +25°C° 0 mm 4 mps 759 mmHg 83%
    02:00 +23°C° 0 mm 4 mps 758 mmHg 82%
    03:00 +23°C° 0 mm 4 mps 758 mmHg 82%
    04:00 +23°C° 0 mm 4 mps 758 mmHg 81%
    05:00 +23°C° 0 mm 4 mps 758 mmHg 81%
    06:00 +25°C° 0 mm 4 mps 759 mmHg 78%
    07:00 +25°C° 0 mm 4 mps 759 mmHg 75%
    08:00 +26°C° 0 mm 4 mps 760 mmHg 72%
    09:00 +28°C° 0 mm 4 mps 760 mmHg 66%
    10:00 +30°C° 0 mm 4 mps 759 mmHg 59%
    11:00 +33°C° 0 mm 5 mps 759 mmHg 52%
    12:00 +33°C° 0 mm 5 mps 759 mmHg 50%
    13:00 +34°C° 0 mm 5 mps 758 mmHg 49%
    14:00 +34°C° 0 mm 6 mps 757 mmHg 48%
    15:00 +33°C° 0 mm 5 mps 757 mmHg 55%
    16:00 +32°C° 0 mm 5 mps 757 mmHg 62%
    17:00 +29°C° 0 mm 5 mps 757 mmHg 70%
    18:00 +29°C° 0 mm 5 mps 758 mmHg 73%
    19:00 +28°C° 0 mm 5 mps 758 mmHg 77%
    20:00 +28°C° 0 mm 5 mps 759 mmHg 80%
    21:00 +27°C° 0 mm 5 mps 759 mmHg 80%
    22:00 +27°C° 0 mm 5 mps 759 mmHg 80%
    23:00 +27°C° 0 mm 5 mps 759 mmHg 79%

    Day after tomorrow, 14 December, Friday

    Time Temperature Precipitation Wind Pressure Humidity
    00:00 +26°C° 0 mm 4 mps 758 mmHg 80%
    01:00 +26°C° 0 mm 4 mps 758 mmHg 81%
    02:00 +26°C° 0 mm 4 mps 757 mmHg 82%
    03:00 +26°C° 0 mm 4 mps 757 mmHg 84%
    04:00 +26°C° 0 mm 4 mps 757 mmHg 85%
    05:00 +26°C° 0 mm 4 mps 757 mmHg 87%
    06:00 +27°C° 0.1 mm 4 mps 758 mmHg 85%
    07:00 +27°C° 0.1 mm 5 mps 758 mmHg 83%
    08:00 +28°C° 0.1 mm 5 mps 759 mmHg 82%
    09:00 +29°C° 0.2 mm 5 mps 759 mmHg 78%
    10:00 +30°C° 0.2 mm 6 mps 758 mmHg 74%
    11:00 +32°C° 0.2 mm 6 mps 758 mmHg 70%
    12:00 +30°C° 0.4 mm 6 mps 757 mmHg 74%
    13:00 +30°C° 0.4 mm 6 mps 756 mmHg 77%
    14:00 +29°C° 0.4 mm 7 mps 756 mmHg 80%
    15:00 +29°C° 0.3 mm 6 mps 756 mmHg 83%
    16:00 +28°C° 0.3 mm 6 mps 756 mmHg 86%
    17:00 +27°C° 0.3 mm 6 mps 756 mmHg 89%
    18:00 +27°C° 0 mm 6 mps 757 mmHg 89%
    19:00 +27°C° 0 mm 5 mps 757 mmHg 90%
    20:00 +26°C° 0 mm 5 mps 758 mmHg 90%
    21:00 +26°C° 0 mm 5 mps 757 mmHg 90%
    22:00 +26°C° 0 mm 5 mps 757 mmHg 90%
    23:00 +26°C° 0 mm 6 mps 757 mmHg 90%

    15 December, Saturday

    Time Temperature Precipitation Wind Pressure Humidity
    00:00 +26°C° 0.1 mm 5 mps 757 mmHg 91%
    01:00 +26°C° 0.1 mm 5 mps 757 mmHg 91%
    02:00 +26°C° 0.1 mm 5 mps 756 mmHg 92%
    03:00 +26°C° 0.2 mm 5 mps 756 mmHg 92%
    04:00 +26°C° 0.2 mm 5 mps 756 mmHg 92%
    05:00 +26°C° 0.2 mm 5 mps 756 mmHg 92%
    06:00 +27°C° 0.1 mm 5 mps 757 mmHg 91%
    07:00 +27°C° 0.1 mm 5 mps 757 mmHg 90%
    08:00 +27°C° 0.1 mm 5 mps 758 mmHg 89%
    09:00 +28°C° 0.1 mm 5 mps 758 mmHg 85%
    10:00 +29°C° 0.1 mm 6 mps 757 mmHg 82%
    11:00 +29°C° 0.1 mm 6 mps 757 mmHg 79%
    12:00 +29°C° 0 mm 6 mps 756 mmHg 78%
    13:00 +29°C° 0 mm 6 mps 756 mmHg 77%
    14:00 +29°C° 0 mm 6 mps 755 mmHg 75%
    15:00 +29°C° 0 mm 6 mps 755 mmHg 78%
    16:00 +28°C° 0 mm 6 mps 756 mmHg 80%
    17:00 +28°C° 0 mm 6 mps 756 mmHg 82%
    18:00 +27°C° 0 mm 5 mps 756 mmHg 84%
    19:00 +26°C° 0 mm 5 mps 757 mmHg 86%
    20:00 +26°C° 0 mm 4 mps 758 mmHg 87%
    21:00 +26°C° 0 mm 4 mps 758 mmHg 86%
    22:00 +26°C° 0 mm 4 mps 758 mmHg 86%
    23:00 +25°C° 0 mm 3 mps 758 mmHg 85%

    16 December, Sunday

    Time Temperature Precipitation Wind Pressure Humidity
    00:00 +25°C° 0 mm 3 mps 757 mmHg 86%
    01:00 +24°C° 0 mm 3 mps 757 mmHg 86%
    02:00 +24°C° 0 mm 3 mps 756 mmHg 87%
    03:00 +24°C° 0 mm 3 mps 757 mmHg 87%
    04:00 +24°C° 0 mm 3 mps 757 mmHg 86%
    05:00 +22°C° 0 mm 3 mps 757 mmHg 85%
    06:00 +25°C° 0 mm 2 mps 758 mmHg 80%
    07:00 +26°C° 0 mm 2 mps 758 mmHg 74%
    08:00 +28°C° 0 mm 2 mps 758 mmHg 68%
    09:00 +30°C° 0 mm 2 mps 758 mmHg 61%
    10:00 +32°C° 0 mm 1 mps 758 mmHg 54%
    11:00 +34°C° 0 mm 1 mps 758 mmHg 47%
    12:00 +33°C° 0 mm 1 mps 757 mmHg 48%
    13:00 +34°C° 0 mm 2 mps 756 mmHg 48%
    14:00 +34°C° 0 mm 2 mps 756 mmHg 48%
    15:00 +32°C° 0 mm 2 mps 756 mmHg 56%
    16:00 +30°C° 0 mm 2 mps 756 mmHg 64%
    17:00 +29°C° 0 mm 2 mps 756 mmHg 72%
    18:00 +28°C° 0 mm 2 mps 757 mmHg 76%
    19:00 +26°C° 0 mm 1 mps 758 mmHg 81%
    20:00 +25°C° 0 mm 1 mps 758 mmHg 85%
    21:00 +25°C° 0 mm 1 mps 758 mmHg 86%
    22:00 +25°C° 0 mm 1 mps 758 mmHg 87%
    23:00 +25°C° 0 mm 1 mps 759 mmHg 88%

    17 December, Monday

    Time Temperature Precipitation Wind Pressure Humidity
    00:00 +24°C° 0 mm 1 mps 758 mmHg 89%
    01:00 +24°C° 0 mm 1 mps 758 mmHg 90%
    02:00 +24°C° 0 mm 1 mps 757 mmHg 91%
    03:00 +24°C° 0 mm 1 mps 757 mmHg 91%
    04:00 +24°C° 0 mm 1 mps 758 mmHg 91%
    05:00 +23°C° 0 mm 1 mps 758 mmHg 92%
    06:00 +25°C° 0 mm 1 mps 758 mmHg 85%
    07:00 +27°C° 0 mm 1 mps 759 mmHg 77%
    08:00 +29°C° 0 mm 1 mps 759 mmHg 70%
    09:00 +30°C° 0 mm 1 mps 759 mmHg 64%
    10:00 +32°C° 0 mm 1 mps 759 mmHg 58%
    11:00 +34°C° 0 mm 1 mps 758 mmHg 51%
    12:00 +34°C° 0 mm 2 mps 758 mmHg 52%
    13:00 +34°C° 0 mm 2 mps 757 mmHg 53%
    14:00 +34°C° 0 mm 3 mps 756 mmHg 54%
    15:00 +33°C° 0 mm 3 mps 756 mmHg 61%
    16:00 +30°C° 0 mm 3 mps 756 mmHg 68%
    17:00 +29°C° 0 mm 2 mps 756 mmHg 75%
    18:00 +28°C° 0 mm 2 mps 757 mmHg 79%
    19:00 +27°C° 0 mm 2 mps 758 mmHg 83%
    20:00 +26°C° 0 mm 1 mps 758 mmHg 87%
    21:00 +26°C° 0 mm 2 mps 758 mmHg 88%
    22:00 +26°C° 0 mm 2 mps 758 mmHg 90%
    23:00 +26°C° 0 mm 2 mps 758 mmHg 91%
    Show more